NORTHEAST SUFFOLK  -  Frost Advisory Frost Advisory     Special Weather Statement Special Weather Statement        NORTHERN NASSAU  -  Frost Advisory Frost Advisory     Special Weather Statement Special Weather Statement        NORTHWEST SUFFOLK  -  Frost Advisory Frost Advisory     Special Weather Statement Special Weather Statement        SOUTHEAST SUFFOLK  -  Frost Advisory Frost Advisory     Special Weather Statement Special Weather Statement        SOUTHERN NASSAU  -  Frost Advisory Frost Advisory     Special Weather Statement Special Weather Statement        SOUTHWEST SUFFOLK  -  Frost Advisory Frost Advisory     Special Weather Statement Special Weather Statement        NORTHERN QUEENS  -  Special Weather Statement Special Weather Statement        SOUTHERN QUEENS  -  Special Weather Statement Special Weather Statement      

Active alerts

Northern Nassau
  Details for Northern Nassau Frost Advisory  +1 additional alert
Southern Nassau
  Details for Southern Nassau Frost Advisory  +1 additional alert
Northwest Suffolk
  Details for Northwest Suffolk Frost Advisory  +1 additional alert
Southwest Suffolk
  Details for Southwest Suffolk Frost Advisory  +1 additional alert
Northeast Suffolk
  Details for Northeast Suffolk Frost Advisory  +1 additional alert
Southeast Suffolk
  Details for Southeast Suffolk Frost Advisory  +1 additional alert
Northern Queens
  Details for Northern Queens Special Weather Statement
Southern Queens
  Details for Southern Queens Special Weather Statement


WXM80 ListenWXM80 Stop

You find our weather info also at:

UK Metoffice

WeatherCloud

Weather Underground

Northeastern Weather Network

AWEKAS

Citizen Weather Observer Program (CWOP)

HAMweather, WeatherForYou, PWS Weather


Weather Underground History page Text

Daily Summary for March 18, 2016 Units:  English    Metric   Both
« Previous Day
Next Day »
Daily Weekly Monthly Yearly Custom
  High: Low: Average:
Temperature: 57.9 °F 42.9 °F 49.5 °F
Dew Point: 39.0 °F 31.5 °F 34 °F
Humidity: 76 % 38 % 56 %
Wind Speed: 11.7 mph 0.0 mph 4.9 mph
Wind Gust: 21.0 mph - -
Wind:- - West
Pressure: 29.93 in 29.74 in -
Precipitation: 0.00 in    
Historical Graphs
 
 
Tabular Data for March 18, 2016
Time Temperature Dew Point Pressure Wind Wind Speed Wind Gust Humidity Rainfall Rate (Hourly)
00:04 46.0 °F 38.5 °F 29.75 in SW 2.8 mph 3.5 mph 75 % 0.00 in
00:09 45.9 °F 38.4 °F 29.76 in SW 2.8 mph 3.5 mph 75 % 0.00 in
00:14 45.9 °F 38.4 °F 29.76 in WSW 2.0 mph 4.0 mph 75 % 0.00 in
00:19 45.9 °F 38.4 °F 29.76 in SSW 2.3 mph 4.6 mph 75 % 0.00 in
00:24 46.0 °F 38.9 °F 29.76 in SW 1.1 mph 4.6 mph 76 % 0.00 in
00:29 46.0 °F 38.9 °F 29.76 in SW 2.8 mph 3.5 mph 76 % 0.00 in
00:35 46.1 °F 39.0 °F 29.76 in SW 2.1 mph 3.5 mph 76 % 0.00 in
00:40 46.0 °F 38.9 °F 29.76 in SW 2.1 mph 3.5 mph 76 % 0.00 in
00:45 46.0 °F 38.9 °F 29.76 in SW 3.4 mph 4.6 mph 76 % 0.00 in
00:50 46.0 °F 38.9 °F 29.76 in SSW 1.5 mph 3.5 mph 76 % 0.00 in
00:55 46.0 °F 38.9 °F 29.76 in SW 1.6 mph 3.5 mph 76 % 0.00 in
01:00 46.0 °F 38.9 °F 29.76 in SW 3.5 mph 5.8 mph 76 % 0.00 in
01:05 46.1 °F 38.3 °F 29.76 in SW 2.6 mph 6.9 mph 74 % 0.00 in
01:10 46.4 °F 38.9 °F 29.75 in SW 0.9 mph 3.5 mph 75 % 0.00 in
01:15 46.5 °F 39.0 °F 29.75 in SSW 2.4 mph 3.5 mph 75 % 0.00 in
01:21 46.5 °F 39.0 °F 29.75 in SSW 3.5 mph 4.0 mph 75 % 0.00 in
01:26 46.4 °F 38.9 °F 29.75 in SSW 2.8 mph 3.5 mph 75 % 0.00 in
01:31 46.3 °F 38.8 °F 29.75 in SSW 1.7 mph 3.5 mph 75 % 0.00 in
01:36 46.2 °F 38.7 °F 29.75 in SSW 2.1 mph 3.5 mph 75 % 0.00 in
01:41 46.1 °F 38.6 °F 29.75 in Calm   1.2 mph 75 % 0.00 in
01:46 46.0 °F 38.2 °F 29.75 in SSW 0.9 mph 2.3 mph 74 % 0.00 in
01:51 45.8 °F 38.3 °F 29.75 in SSW 0.1 mph 1.2 mph 75 % 0.00 in
01:56 45.6 °F 38.1 °F 29.75 in Calm   1.2 mph 75 % 0.00 in
02:01 45.4 °F 37.9 °F 29.76 in SSW 1.4 mph 3.5 mph 75 % 0.00 in
02:06 45.2 °F 37.7 °F 29.75 in Calm   2.3 mph 75 % 0.00 in
02:12 45.0 °F 37.6 °F 29.75 in SSW 0.6 mph 1.2 mph 75 % 0.00 in
02:17 44.8 °F 37.4 °F 29.75 in SSW 1.0 mph 2.3 mph 75 % 0.00 in
02:22 44.5 °F 37.1 °F 29.75 in SSW 0.2 mph 1.2 mph 75 % 0.00 in
02:27 44.3 °F 37.2 °F 29.75 in SSW 0.5 mph 2.3 mph 76 % 0.00 in
02:32 44.1 °F 37.0 °F 29.75 in SSW 1.0 mph 2.0 mph 76 % 0.00 in
02:37 43.9 °F 36.8 °F 29.76 in SSW 2.4 mph 3.5 mph 76 % 0.00 in
02:42 43.7 °F 36.6 °F 29.76 in SSW 1.2 mph 3.5 mph 76 % 0.00 in
02:47 43.6 °F 36.5 °F 29.76 in SSW 0.9 mph 2.3 mph 76 % 0.00 in
02:52 43.4 °F 36.3 °F 29.75 in SSW 0.6 mph 2.3 mph 76 % 0.00 in
02:57 43.3 °F 36.2 °F 29.75 in SSW 1.1 mph 2.3 mph 76 % 0.00 in
03:03 43.1 °F 36.0 °F 29.75 in SW 1.7 mph 3.5 mph 76 % 0.00 in
03:08 43.0 °F 36.0 °F 29.75 in SSW 3.3 mph 5.0 mph 76 % 0.00 in
03:13 42.9 °F 35.9 °F 29.75 in SSW 2.2 mph 4.6 mph 76 % 0.00 in
03:18 43.0 °F 36.0 °F 29.75 in SW 2.9 mph 3.5 mph 76 % 0.00 in
03:23 43.1 °F 36.0 °F 29.75 in SW 1.7 mph 4.6 mph 76 % 0.00 in
03:28 43.4 °F 36.0 °F 29.75 in WSW 3.5 mph 8.0 mph 75 % 0.00 in
03:33 43.6 °F 35.9 °F 29.75 in SSW 2.4 mph 3.5 mph 74 % 0.00 in
03:38 43.9 °F 35.8 °F 29.75 in WSW 2.2 mph 4.6 mph 73 % 0.00 in
03:48 44.6 °F 35.8 °F 29.75 in WSW 2.8 mph 5.8 mph 71 % 0.00 in
03:54 44.8 °F 35.6 °F 29.75 in SW 1.6 mph 4.6 mph 70 % 0.00 in
03:59 45.0 °F 35.8 °F 29.75 in SW 2.2 mph 4.6 mph 70 % 0.00 in
04:04 45.1 °F 35.9 °F 29.75 in SW 2.4 mph 3.5 mph 70 % 0.00 in
04:09 45.2 °F 35.6 °F 29.75 in WSW 2.2 mph 3.5 mph 69 % 0.00 in
04:14 45.2 °F 35.3 °F 29.75 in SW 1.0 mph 3.5 mph 68 % 0.00 in
04:19 45.2 °F 35.3 °F 29.75 in WSW 1.9 mph 4.6 mph 68 % 0.00 in
04:24 45.3 °F 35.4 °F 29.75 in SW 2.6 mph 6.9 mph 68 % 0.00 in
04:29 45.2 °F 35.3 °F 29.75 in South 2.5 mph 4.6 mph 68 % 0.00 in
04:34 45.2 °F 35.3 °F 29.75 in SW 1.1 mph 4.0 mph 68 % 0.00 in
04:39 45.1 °F 34.8 °F 29.75 in SW 4.0 mph 7.0 mph 67 % 0.00 in
04:45 45.1 °F 34.8 °F 29.75 in SSW 1.7 mph 5.0 mph 67 % 0.00 in
04:50 45.1 °F 34.8 °F 29.75 in South 3.2 mph 6.9 mph 67 % 0.00 in
04:55 45.1 °F 34.4 °F 29.75 in SSW 5.3 mph 9.2 mph 66 % 0.00 in
05:00 45.2 °F 34.5 °F 29.75 in SSW 2.0 mph 5.8 mph 66 % 0.00 in
05:05 45.3 °F 34.6 °F 29.75 in SSW 3.0 mph 6.9 mph 66 % 0.00 in
05:10 45.4 °F 34.3 °F 29.75 in SSW 4.1 mph 8.1 mph 65 % 0.00 in
05:15 45.5 °F 34.0 °F 29.75 in SW 3.5 mph 8.1 mph 64 % 0.00 in
05:20 45.7 °F 33.8 °F 29.75 in SW 4.7 mph 6.9 mph 63 % 0.00 in
05:30 46.0 °F 33.7 °F 29.75 in SW 3.8 mph 7.0 mph 62 % 0.00 in
05:36 46.1 °F 34.2 °F 29.75 in SSW 2.9 mph 4.6 mph 63 % 0.00 in
05:41 46.2 °F 33.9 °F 29.75 in SSW 5.7 mph 10.4 mph 62 % 0.00 in
05:46 46.2 °F 33.9 °F 29.75 in WSW 6.2 mph 8.1 mph 62 % 0.00 in
05:51 46.3 °F 34.0 °F 29.75 in SW 3.9 mph 9.2 mph 62 % 0.00 in
05:56 46.3 °F 34.0 °F 29.75 in SW 5.4 mph 9.2 mph 62 % 0.00 in
06:01 46.3 °F 34.0 °F 29.75 in SW 2.8 mph 4.6 mph 62 % 0.00 in
06:06 46.3 °F 34.0 °F 29.75 in SSW 5.4 mph 9.2 mph 62 % 0.00 in
06:11 46.2 °F 33.9 °F 29.75 in WSW 1.6 mph 6.9 mph 62 % 0.00 in
06:16 46.3 °F 33.6 °F 29.75 in SW 4.3 mph 11.5 mph 61 % 0.00 in
06:21 46.5 °F 33.8 °F 29.75 in WSW 3.6 mph 9.2 mph 61 % 0.00 in
06:27 46.8 °F 33.6 °F 29.74 in NW 6.4 mph 9.2 mph 60 % 0.00 in
06:37 47.3 °F 33.3 °F 29.75 in West 7.0 mph 16.1 mph 58 % 0.00 in
06:42 47.4 °F 33.4 °F 29.75 in WSW 4.8 mph 15.0 mph 58 % 0.00 in
06:47 47.4 °F 33.4 °F 29.75 in WSW 10.5 mph 20.7 mph 58 % 0.00 in
06:52 47.4 °F 32.9 °F 29.75 in WSW 9.0 mph 12.0 mph 57 % 0.00 in
06:57 47.5 °F 33.0 °F 29.75 in WSW 7.0 mph 15.0 mph 57 % 0.00 in
07:02 47.4 °F 32.9 °F 29.75 in WSW 5.1 mph 11.0 mph 57 % 0.00 in
07:07 47.4 °F 33.4 °F 29.75 in SW 4.7 mph 11.5 mph 58 % 0.00 in
07:12 47.3 °F 33.3 °F 29.75 in SW 6.4 mph 12.7 mph 58 % 0.00 in
07:18 47.3 °F 33.3 °F 29.75 in West 9.7 mph 9.7 mph 58 % 0.00 in
07:23 47.3 °F 33.3 °F 29.75 in West 3.2 mph 6.9 mph 58 % 0.00 in
07:28 47.4 °F 33.4 °F 29.75 in SW 5.0 mph 9.2 mph 58 % 0.00 in
07:33 47.4 °F 32.9 °F 29.75 in WSW 5.9 mph 9.2 mph 57 % 0.00 in
07:38 47.5 °F 32.6 °F 29.75 in WSW 4.3 mph 8.1 mph 56 % 0.00 in
07:43 47.6 °F 32.7 °F 29.76 in SW 3.7 mph 8.0 mph 56 % 0.00 in
07:48 47.9 °F 32.9 °F 29.76 in WSW 8.5 mph 15.0 mph 56 % 0.00 in
07:53 48.1 °F 32.7 °F 29.75 in West 8.9 mph 12.7 mph 55 % 0.00 in
07:58 48.2 °F 32.8 °F 29.76 in WSW 3.0 mph 6.9 mph 55 % 0.00 in
08:03 48.4 °F 33.0 °F 29.75 in WNW 5.7 mph 5.7 mph 55 % 0.00 in
08:09 48.6 °F 32.2 °F 29.76 in WSW 3.8 mph 10.4 mph 53 % 0.00 in
08:14 48.7 °F 32.8 °F 29.76 in SW 2.7 mph 4.6 mph 54 % 0.00 in
08:19 48.9 °F 32.5 °F 29.76 in SW 3.1 mph 11.5 mph 53 % 0.00 in
08:24 49.1 °F 32.2 °F 29.76 in WSW 5.7 mph 10.4 mph 52 % 0.00 in
08:29 49.3 °F 32.4 °F 29.76 in WNW 3.5 mph 11.5 mph 52 % 0.00 in
08:34 49.5 °F 32.6 °F 29.76 in WSW 6.0 mph 8.1 mph 52 % 0.00 in
08:39 49.7 °F 32.3 °F 29.76 in WNW 5.3 mph 10.4 mph 51 % 0.00 in
08:44 49.9 °F 32.0 °F 29.76 in West 6.9 mph 10.4 mph 50 % 0.00 in
08:49 50.2 °F 32.3 °F 29.76 in WSW 6.7 mph 9.2 mph 50 % 0.00 in
08:54 50.3 °F 32.4 °F 29.77 in WNW 3.0 mph 5.8 mph 50 % 0.00 in
09:00 50.6 °F 32.1 °F 29.77 in West 7.9 mph 11.5 mph 49 % 0.00 in
09:05 50.7 °F 31.7 °F 29.77 in SW 7.2 mph 12.7 mph 48 % 0.00 in
09:10 50.8 °F 32.3 °F 29.77 in WSW 5.2 mph 10.4 mph 49 % 0.00 in
09:15 50.9 °F 32.4 °F 29.77 in WSW 8.9 mph 13.8 mph 49 % 0.00 in
09:20 50.9 °F 31.9 °F 29.77 in WNW 7.3 mph 11.0 mph 48 % 0.00 in
09:25 51.0 °F 31.5 °F 29.78 in WNW 7.4 mph 17.3 mph 47 % 0.00 in
09:28 51.0 °F 32.0 °F 29.77 in WNW 7.5 mph 15.0 mph 48 % 0.00 in
09:33 51.1 °F 31.6 °F 29.78 in WNW 6.9 mph 11.5 mph 47 % 0.00 in
09:38 51.2 °F 32.2 °F 29.77 in SW 6.7 mph 12.7 mph 48 % 0.00 in
09:43 51.3 °F 32.8 °F 29.78 in NW 9.5 mph 16.1 mph 49 % 0.00 in
09:48 51.4 °F 32.3 °F 29.78 in West 8.2 mph 18.4 mph 48 % 0.00 in
09:58 51.7 °F 33.1 °F 29.78 in West 4.9 mph 8.0 mph 49 % 0.00 in
10:03 51.9 °F 32.3 °F 29.77 in West 8.4 mph 12.7 mph 47 % 0.00 in
10:08 51.9 °F 32.8 °F 29.77 in SW 4.5 mph 11.5 mph 48 % 0.00 in
10:14 52.0 °F 32.4 °F 29.77 in WSW 8.5 mph 17.3 mph 47 % 0.00 in
10:19 52.1 °F 33.0 °F 29.77 in West 4.1 mph 10.4 mph 48 % 0.00 in
10:29 52.3 °F 32.1 °F 29.77 in WSW 9.5 mph 15.0 mph 46 % 0.00 in
10:34 52.5 °F 32.8 °F 29.77 in West 6.9 mph 12.0 mph 47 % 0.00 in
10:39 52.9 °F 33.2 °F 29.77 in West 6.2 mph 10.4 mph 47 % 0.00 in
10:44 53.1 °F 32.3 °F 29.77 in WNW 9.6 mph 13.8 mph 45 % 0.00 in
10:49 53.2 °F 32.4 °F 29.77 in WSW 11.6 mph 17.3 mph 45 % 0.00 in
10:54 53.4 °F 32.0 °F 29.76 in NW 8.8 mph 16.1 mph 44 % 0.00 in
10:59 53.5 °F 32.1 °F 29.76 in WNW 5.1 mph 12.7 mph 44 % 0.00 in
11:05 53.5 °F 32.1 °F 29.77 in NW 6.0 mph 11.5 mph 44 % 0.00 in
11:10 53.6 °F 32.2 °F 29.76 in West 8.6 mph 15.0 mph 44 % 0.00 in
11:15 53.9 °F 32.5 °F 29.76 in West 8.9 mph 16.1 mph 44 % 0.00 in
11:25 54.4 °F 32.9 °F 29.76 in WNW 7.9 mph 12.0 mph 44 % 0.00 in
11:30 54.7 °F 33.8 °F 29.76 in NW 2.5 mph 6.9 mph 45 % 0.00 in
11:35 55.1 °F 33.6 °F 29.75 in NW 7.7 mph 17.3 mph 44 % 0.00 in
11:40 55.3 °F 32.6 °F 29.76 in NW 9.3 mph 18.4 mph 42 % 0.00 in
11:45 55.3 °F 33.2 °F 29.76 in West 7.9 mph 15.0 mph 43 % 0.00 in
11:50 55.4 °F 33.3 °F 29.76 in NNW 6.1 mph 10.4 mph 43 % 0.00 in
11:56 55.6 °F 32.8 °F 29.76 in NW 9.5 mph 12.7 mph 42 % 0.00 in
12:06 55.9 °F 33.7 °F 29.75 in West 5.5 mph 11.5 mph 43 % 0.00 in
12:11 56.2 °F 33.4 °F 29.76 in NW 7.2 mph 13.0 mph 42 % 0.00 in
12:16 56.4 °F 33.0 °F 29.75 in West 8.0 mph 16.1 mph 41 % 0.00 in
12:21 56.6 °F 33.2 °F 29.75 in WNW 8.6 mph 15.0 mph 41 % 0.00 in
12:26 56.8 °F 35.1 °F 29.75 in NW 6.9 mph 11.5 mph 44 % 0.00 in
12:36 57.1 °F 33.6 °F 29.75 in WSW 8.8 mph 15.0 mph 41 % 0.00 in
12:41 57.2 °F 33.7 °F 29.76 in WNW 8.7 mph 12.7 mph 41 % 0.00 in
12:47 57.3 °F 33.8 °F 29.76 in WSW 8.5 mph 12.0 mph 41 % 0.00 in
12:52 57.6 °F 34.1 °F 29.76 in West 6.9 mph 11.5 mph 41 % 0.00 in
12:57 57.8 °F 33.0 °F 29.76 in NW 7.8 mph 13.8 mph 39 % 0.00 in
13:02 57.9 °F 32.4 °F 29.76 in WNW 10.7 mph 15.0 mph 38 % 0.00 in
13:07 57.7 °F 32.9 °F 29.76 in West 7.9 mph 13.8 mph 39 % 0.00 in
13:12 57.5 °F 33.3 °F 29.76 in WNW 6.7 mph 12.7 mph 40 % 0.00 in
13:17 57.1 °F 33.6 °F 29.76 in West 9.2 mph 14.0 mph 41 % 0.00 in
13:22 56.7 °F 32.6 °F 29.76 in WNW 8.1 mph 17.3 mph 40 % 0.00 in
13:27 56.3 °F 32.9 °F 29.76 in West 4.3 mph 7.0 mph 41 % 0.00 in
13:32 56.0 °F 32.6 °F 29.76 in West 9.0 mph 17.3 mph 41 % 0.00 in
13:38 56.2 °F 33.4 °F 29.76 in WNW 6.2 mph 16.1 mph 42 % 0.00 in
13:43 56.3 °F 33.5 °F 29.76 in NNW 10.2 mph 18.4 mph 42 % 0.00 in
13:48 56.2 °F 32.8 °F 29.76 in WNW 8.2 mph 11.5 mph 41 % 0.00 in
13:53 55.8 °F 32.4 °F 29.76 in WNW 11.7 mph 18.4 mph 41 % 0.00 in
13:58 55.5 °F 32.8 °F 29.76 in West 10.1 mph 15.0 mph 42 % 0.00 in
14:03 55.5 °F 33.3 °F 29.76 in WNW 8.3 mph 16.1 mph 43 % 0.00 in
14:08 56.0 °F 34.4 °F 29.76 in NNW 8.2 mph 21.0 mph 44 % 0.00 in
14:13 56.5 °F 33.7 °F 29.75 in WSW 7.7 mph 10.4 mph 42 % 0.00 in
14:18 56.7 °F 32.6 °F 29.75 in West 8.0 mph 13.8 mph 40 % 0.00 in
14:29 56.4 °F 32.4 °F 29.76 in WSW 9.9 mph 13.8 mph 40 % 0.00 in
14:34 56.1 °F 31.5 °F 29.76 in WNW 11.4 mph 19.6 mph 39 % 0.00 in
14:39 55.8 °F 31.8 °F 29.76 in North 8.2 mph 16.1 mph 40 % 0.00 in
14:44 55.7 °F 32.9 °F 29.76 in WNW 9.0 mph 15.0 mph 42 % 0.00 in
14:49 55.4 °F 33.3 °F 29.76 in NW 4.1 mph 9.2 mph 43 % 0.00 in
14:54 55.2 °F 34.2 °F 29.76 in WNW 6.1 mph 11.5 mph 45 % 0.00 in
14:59 54.8 °F 33.8 °F 29.76 in West 8.1 mph 19.6 mph 45 % 0.00 in
15:04 54.5 °F 33.0 °F 29.76 in NW 10.8 mph 14.0 mph 44 % 0.00 in
15:09 54.6 °F 34.2 °F 29.76 in WNW 8.6 mph 16.1 mph 46 % 0.00 in
15:14 54.8 °F 33.3 °F 29.76 in West 6.6 mph 12.7 mph 44 % 0.00 in
15:20 54.9 °F 33.9 °F 29.76 in NW 5.1 mph 8.0 mph 45 % 0.00 in
15:25 55.1 °F 33.0 °F 29.76 in WNW 5.4 mph 13.8 mph 43 % 0.00 in
15:30 55.0 °F 33.5 °F 29.76 in West 5.5 mph 16.1 mph 44 % 0.00 in
15:35 54.9 °F 32.8 °F 29.77 in West 6.8 mph 12.7 mph 43 % 0.00 in
15:40 54.8 °F 32.1 °F 29.77 in WNW 5.4 mph 11.5 mph 42 % 0.00 in
15:45 54.8 °F 32.7 °F 29.77 in WSW 6.6 mph 12.7 mph 43 % 0.00 in
15:50 54.8 °F 32.7 °F 29.77 in WNW 5.6 mph 9.2 mph 43 % 0.00 in
15:55 54.7 °F 32.0 °F 29.77 in WNW 8.8 mph 20.7 mph 42 % 0.00 in
16:00 54.6 °F 31.9 °F 29.77 in WNW 8.2 mph 18.4 mph 42 % 0.00 in
16:05 54.4 °F 32.9 °F 29.77 in SW 7.8 mph 18.4 mph 44 % 0.00 in
16:11 54.4 °F 32.9 °F 29.77 in NNW 5.8 mph 13.0 mph 44 % 0.00 in
16:16 54.4 °F 33.5 °F 29.77 in WSW 4.3 mph 9.2 mph 45 % 0.00 in
16:21 54.4 °F 34.0 °F 29.77 in WNW 1.2 mph 3.5 mph 46 % 0.00 in
16:26 54.5 °F 35.2 °F 29.77 in NNW 1.8 mph 3.0 mph 48 % 0.00 in
16:31 54.6 °F 34.2 °F 29.78 in NW 6.4 mph 10.4 mph 46 % 0.00 in
16:36 54.5 °F 35.7 °F 29.78 in WNW 3.4 mph 5.8 mph 49 % 0.00 in
16:41 54.2 °F 34.4 °F 29.78 in WNW 4.7 mph 11.5 mph 47 % 0.00 in
16:51 54.0 °F 33.1 °F 29.78 in WNW 7.9 mph 11.0 mph 45 % 0.00 in
16:56 54.0 °F 33.1 °F 29.78 in NW 8.8 mph 13.0 mph 45 % 0.00 in
17:02 54.0 °F 33.7 °F 29.78 in West 6.1 mph 13.0 mph 46 % 0.00 in
17:07 53.8 °F 32.4 °F 29.78 in West 5.8 mph 16.1 mph 44 % 0.00 in
17:12 53.7 °F 32.8 °F 29.79 in NW 4.8 mph 13.8 mph 45 % 0.00 in
17:17 53.5 °F 32.7 °F 29.79 in WNW 5.0 mph 12.7 mph 45 % 0.00 in
17:22 53.3 °F 33.0 °F 29.79 in NW 4.9 mph 10.4 mph 46 % 0.00 in
17:27 53.3 °F 33.0 °F 29.80 in WSW 5.0 mph 11.5 mph 46 % 0.00 in
17:32 53.2 °F 33.5 °F 29.80 in WNW 4.8 mph 12.0 mph 47 % 0.00 in
17:37 53.0 °F 32.8 °F 29.80 in WNW 6.8 mph 16.1 mph 46 % 0.00 in
17:42 52.9 °F 33.2 °F 29.80 in NNW 2.8 mph 8.1 mph 47 % 0.00 in
17:47 52.8 °F 33.1 °F 29.81 in WSW 5.3 mph 11.5 mph 47 % 0.00 in
17:53 52.5 °F 32.8 °F 29.81 in WNW 5.4 mph 11.0 mph 47 % 0.00 in
17:58 52.3 °F 33.2 °F 29.81 in WSW 4.8 mph 11.5 mph 48 % 0.00 in
18:03 52.1 °F 31.9 °F 29.81 in WSW 6.7 mph 14.0 mph 46 % 0.00 in
18:08 52.1 °F 31.9 °F 29.81 in West 4.0 mph 5.8 mph 46 % 0.00 in
18:13 52.1 °F 31.9 °F 29.81 in NW 5.9 mph 9.0 mph 46 % 0.00 in
18:18 52.0 °F 31.8 °F 29.81 in NW 4.6 mph 7.0 mph 46 % 0.00 in
18:23 51.9 °F 31.7 °F 29.82 in NW 4.7 mph 8.1 mph 46 % 0.00 in
18:28 51.8 °F 32.2 °F 29.82 in WNW 5.2 mph 8.0 mph 47 % 0.00 in
18:33 51.7 °F 32.1 °F 29.82 in NW 3.2 mph 9.2 mph 47 % 0.00 in
18:38 51.5 °F 31.9 °F 29.82 in NW 2.0 mph 3.5 mph 47 % 0.00 in
18:44 51.3 °F 32.8 °F 29.82 in WNW 4.1 mph 6.9 mph 49 % 0.00 in
18:54 50.7 °F 33.7 °F 29.83 in NW 3.9 mph 7.0 mph 52 % 0.00 in
18:59 50.5 °F 34.0 °F 29.83 in WNW 3.9 mph 6.9 mph 53 % 0.00 in
19:04 50.2 °F 34.2 °F 29.83 in WSW 4.1 mph 6.9 mph 54 % 0.00 in
19:09 49.9 °F 34.4 °F 29.83 in WNW 4.6 mph 5.8 mph 55 % 0.00 in
19:19 49.6 °F 32.7 °F 29.84 in NW 4.0 mph 4.6 mph 52 % 0.00 in
19:24 49.5 °F 32.6 °F 29.84 in WNW 3.9 mph 11.5 mph 52 % 0.00 in
19:29 49.5 °F 32.6 °F 29.84 in NNW 1.6 mph 4.6 mph 52 % 0.00 in
19:35 49.4 °F 33.4 °F 29.84 in West 3.1 mph 4.6 mph 54 % 0.00 in
19:40 49.2 °F 34.2 °F 29.85 in WNW 4.7 mph 11.5 mph 56 % 0.00 in
19:45 49.0 °F 33.1 °F 29.85 in NW 3.8 mph 11.5 mph 54 % 0.00 in
19:50 48.8 °F 32.9 °F 29.85 in NW 5.9 mph 11.5 mph 54 % 0.00 in
19:55 48.8 °F 33.3 °F 29.85 in NW 5.7 mph 10.4 mph 55 % 0.00 in
20:00 48.5 °F 32.6 °F 29.85 in NW 5.3 mph 14.0 mph 54 % 0.00 in
20:05 48.5 °F 32.6 °F 29.86 in WSW 6.9 mph 12.7 mph 54 % 0.00 in
20:10 48.5 °F 33.5 °F 29.86 in NNE 6.0 mph 11.5 mph 56 % 0.00 in
20:15 48.4 °F 33.4 °F 29.86 in NW 4.6 mph 11.5 mph 56 % 0.00 in
20:20 48.2 °F 34.1 °F 29.86 in West 4.8 mph 8.1 mph 58 % 0.00 in
20:26 48.1 °F 34.0 °F 29.87 in West 2.7 mph 6.0 mph 58 % 0.00 in
20:31 47.8 °F 34.2 °F 29.87 in WNW 4.3 mph 7.0 mph 59 % 0.00 in
20:36 47.6 °F 34.4 °F 29.87 in NW 3.9 mph 9.2 mph 60 % 0.00 in
20:41 47.5 °F 34.3 °F 29.88 in WNW 6.0 mph 9.2 mph 60 % 0.00 in
20:46 47.3 °F 34.1 °F 29.88 in WNW 2.9 mph 6.0 mph 60 % 0.00 in
20:51 47.2 °F 34.0 °F 29.88 in NW 1.2 mph 4.6 mph 60 % 0.00 in
20:56 47.0 °F 33.8 °F 29.88 in WNW 2.5 mph 4.0 mph 60 % 0.00 in
21:01 46.9 °F 34.1 °F 29.88 in WNW 0.6 mph 3.5 mph 61 % 0.00 in
21:12 46.6 °F 33.9 °F 29.89 in WNW 3.6 mph 10.4 mph 61 % 0.00 in
21:17 46.5 °F 33.8 °F 29.89 in WNW 2.7 mph 5.0 mph 61 % 0.00 in
21:22 46.4 °F 34.1 °F 29.88 in NNW 4.7 mph 6.9 mph 62 % 0.00 in
21:27 46.3 °F 34.0 °F 29.89 in WNW 6.6 mph 12.7 mph 62 % 0.00 in
21:32 46.3 °F 33.2 °F 29.89 in NW 5.6 mph 10.4 mph 60 % 0.00 in
21:37 46.3 °F 33.6 °F 29.89 in WNW 4.5 mph 9.2 mph 61 % 0.00 in
21:42 46.3 °F 33.6 °F 29.89 in WNW 4.1 mph 6.0 mph 61 % 0.00 in
21:47 46.2 °F 33.1 °F 29.89 in NW 1.7 mph 4.6 mph 60 % 0.00 in
21:52 46.2 °F 33.5 °F 29.89 in WNW 3.3 mph 5.8 mph 61 % 0.00 in
21:57 46.1 °F 34.2 °F 29.90 in NNW 1.6 mph 5.8 mph 63 % 0.00 in
22:03 46.0 °F 34.1 °F 29.90 in WNW 4.4 mph 6.0 mph 63 % 0.00 in
22:08 45.9 °F 34.0 °F 29.90 in NNW 3.9 mph 3.9 mph 63 % 0.00 in
22:13 45.8 °F 34.3 °F 29.90 in North 1.4 mph 3.5 mph 64 % 0.00 in
22:18 45.6 °F 34.5 °F 29.90 in NW 3.0 mph 4.6 mph 65 % 0.00 in
22:23 45.5 °F 34.8 °F 29.90 in WNW 3.0 mph 6.0 mph 66 % 0.00 in
22:28 45.3 °F 33.8 °F 29.91 in WNW 6.9 mph 10.4 mph 64 % 0.00 in
22:33 45.2 °F 32.9 °F 29.91 in NW 5.1 mph 8.1 mph 62 % 0.00 in
22:38 45.2 °F 33.3 °F 29.91 in NW 3.2 mph 4.0 mph 63 % 0.00 in
22:43 45.2 °F 33.7 °F 29.91 in WNW 3.3 mph 6.0 mph 64 % 0.00 in
22:48 45.1 °F 34.0 °F 29.92 in WNW 2.8 mph 6.9 mph 65 % 0.00 in
22:54 45.0 °F 33.5 °F 29.91 in North 3.3 mph 6.9 mph 64 % 0.00 in
22:59 44.9 °F 33.8 °F 29.91 in NNW 2.6 mph 10.4 mph 65 % 0.00 in
23:04 44.7 °F 33.6 °F 29.91 in NNW 2.9 mph 5.8 mph 65 % 0.00 in
23:09 44.6 °F 33.6 °F 29.92 in NW 1.8 mph 4.0 mph 65 % 0.00 in
23:14 44.3 °F 33.3 °F 29.92 in WNW 3.4 mph 5.8 mph 65 % 0.00 in
23:19 44.2 °F 33.6 °F 29.92 in WNW 3.5 mph 5.8 mph 66 % 0.00 in
23:24 44.1 °F 33.5 °F 29.92 in NW 4.0 mph 8.1 mph 66 % 0.00 in
23:29 44.0 °F 33.4 °F 29.92 in NNW 4.7 mph 8.1 mph 66 % 0.00 in
23:34 43.9 °F 33.3 °F 29.92 in NW 3.1 mph 6.9 mph 66 % 0.00 in
23:39 43.8 °F 33.6 °F 29.92 in NW 3.9 mph 5.8 mph 67 % 0.00 in
23:50 43.6 °F 33.4 °F 29.93 in North 1.6 mph 3.5 mph 67 % 0.00 in
23:55 43.5 °F 34.0 °F 29.93 in NW 4.3 mph 8.0 mph 69 % 0.00 in
Crab Meadow Weather
Compliments of Weather Underground - 2.75 mb

Script developed by  Jim McMurry - jmcmurry@mwt.net Adapted for the template by  Wim van der Kuil - Leuven-Template.eu

Astronomy: The light of the Sun takes 8 minutes to reach Earth.